www.pogodaiklimat.ru

Погода и климат >> Архив погоды >> Беларусь >> Минск


АРХИВ ПОГОДЫ в Минске

Время (UTC), дата Ветер
(напр.,м/с)
 
Видим.   Явления Облачность Т
(С)
Тd
(С)
f
(%)
Тe
(С)
Тes
(С)
Комфортность P
(гПа)
Po
(гПа)
Тmin
(С)
Tmax
(С)
R
(мм)
R24
(мм)
S
(см)
06 17.08 ЮВ 1 13 км {гроза, ливн. осадки} 3/0
[Ac trans]
+21.0 +18.2 84 +26 +30 душно 1021.3 995.1 +17.4 10
09 17.08 ЮВ 1 13 км 4/0
[Ac trans Ci fib]
+24.9 +18.4 67 +29 +40 душно 1021.2 995.4
12 17.08 ЮЗ 2 18 км 5/0
[As trans Ci fib]
+26.3 +17.8 60 +31 +38 душно 1020.2 994.5
15 17.08 Ю 1 18 км 3/0
[As op Ci fib]
+26.0 +16.3 55 +29 +32 душно 1019.7 994.0
18 17.08 штиль 0 16 км 3/0
[As op]
+22.5 +17.1 72 +27 +27 душно 1020.1 994.1 +27.5
21 17.08 штиль 0 10 км {ливн. осадки} 3/0
[Ac trans]
+20.2 +18.6 91 +23 +23 комфорт 1020.4 994.1
00 18.08 штиль 0 14 км {ливн. осадки} 5/0
[Ac trans]
+19.6 +16.9 84 +22 +22 комфорт 1019.7 993.4
03 18.08 штиль 0 13 км 5/0
[Ac und]
+18.7 +16.0 84 +20 +20 тепло 1019.7 993.3
06 18.08 Ю 2 11 км 4/0
[Ac trans]
+23.1 +15.9 64 +28 +31 душно 1019.6 993.6 +18.4 0.1
09 18.08 Ю 2 18 км 8/0
[Ac trans]
+26.4 +15.5 51 +29 +35 жарко 1019.3 993.7
12 18.08 Ю 2 15 км 9/0
[Ac trans Cs]
+28.0 +15.8 47 +31 +38 душно 1018.1 992.7
15 18.08 Ю 2 14 км 9/0
[Ac trans Ci fib]
+27.9 +15.7 47 +31 +32 душно 1017.3 991.9
18 18.08 ЮВ 1 15 км 4/0
[Ac trans]
+24.2 +16.4 62 +28 +28 душно 1017.6 991.8 +29.5
21 18.08 ЮВ 1 15 км ясно +22.5 +14.3 60 +26 +26 жарко 1017.3 991.3
00 19.08 В 1 16 км ясно +19.9 +12.6 63 +23 +23 комфорт 1017.0 990.8
03 19.08 ЮВ 1 15 км 5/0
[Ac trans Ci fib]
+17.7 +13.0 74 +19 +19 тепло 1017.3 990.8
06 19.08 ЮВ 2 15 км 9/0
[Ci fib]
+21.2 +13.7 62 +24 +27 комфорт 1016.9 990.8 +17.5
09 19.08 ЮВ 3 15 км 8/0
[Ci fib]
+27.2 +13.9 44 +29 +37 жарко 1015.6 990.2
12 19.08 Ю 3
{11}
15 км 8/0
[Ci fib]
+30.5 +15.3 40 +33 +40 душно 1015.2 990.1
15 19.08 ЮВ 3
{10}
16 км 3/1 1000 м
[Cu hum Ci fib]
+30.3 +13.2 35 +32 +33 жарко 1014.0 988.9
18 19.08 ЮВ 2
{10}
16 км 3/0
[Ac trans]
+26.7 +11.8 39 +28 +28 жарко 1014.5 989.0 +31.5
21 19.08 ЮЗ 1 17 км 3/0
[Ac trans]
+24.5 +12.0 46 +26 +26 жарко 1015.7 990.0
00 20.08 СЗ 1 16 км 5/0
[Ac trans]
+20.8 +16.4 76 +25 +25 комфорт 1016.2 990.1
03 20.08 СЗ 1 14 км 8/0
[Ac trans Ci fib]
+18.6 +17.2 92 +21 +21 комфорт 1016.8 990.4
06 20.08 СВ 1 10 км 8/0
[Ac trans Ci fib]
+20.9 +17.6 81 +26 +29 душно 1016.7 990.6 +18.4
09 20.08 ЮВ 1 14 км 8/0
[Ac trans Ci fib]
+25.5 +16.7 58 +29 +37 душно 1015.5 989.9
12 20.08 ЮВ 1 14 км 8/0
[Ci fib]
+28.6 +14.6 42 +31 +41 жарко 1014.1 988.8
15 20.08 Ю 1 16 км 8/3 1000 м
[Cu hum Ac trans Ci fib]
+29.0 +11.8 35 +30 +31 жарко 1012.2 987.0
18 20.08 СЗ 1 15 км 10/6 600 м
[Sc Ac trans]
+23.2 +19.1 78 +30 +30 очень
душно
1013.6 987.8 +31.3
21 20.08 СЗ 1 16 км 3/0
[Ci fib]
+19.4 +17.4 88 +23 +23 комфорт 1013.5 987.3
00 21.08 СЗ 1 15 км 8/0
[Ac trans]
+16.5 +15.2 92 +17 +17 тепло 1014.4 987.9
03 21.08 штиль 0 11 км 10/0
[As trans]
+16.0 +15.1 94 +16 +16 тепло 1013.3 986.8
06 21.08 ЮЗ 1 11 км {дождь} 10/10 240 м
[Sc]
+15.5 +14.4 93 +16 +16 по сезону 1014.2 987.6 +15.4
09 21.08 штиль 0 14 км {дождь} 10/10 240 м
[Frnb]
+16.6 +14.4 87 +16 +16 прохладно 1014.6 988.1
12 21.08 штиль 0 20 км {дождь} 10/10 240 м
[Frnb]
+14.5 +12.0 85 +14 +14 очень
холодно
1015.7 989.0
15 21.08 З 1 17 км в посл. час дождь 10/8 1440 м
[Sc Ac und]
+14.3 +12.9 91 +15 +15 прохладно 1015.8 989.0
18 21.08 З 1 18 км {дождь} 10/8 240 м
[Sc Ac und]
+14.0 +12.9 93 +14 +14 прохладно 1015.4 988.6 +17.6 0.5
21 21.08 З 1 13 км слабый дождь 10/8 420 м
[St As op]
+14.0 +12.9 93 +14 +14 по сезону 1015.6 988.8
00 22.08 З 1 14 км {дождь} 4/0
[Ac As]
+13.4 +12.7 96 +13 +13 по сезону 1014.6 987.8
03 22.08 З 1 12 км 10/8 240 м
[Sc diur, vesp Ac trans]
+12.9 +12.3 96 +13 +13 по сезону 1014.6 987.7
06 22.08 штиль 0 13 км {дождь} 9/8 600 м
[Sc As op]
+14.0 +12.9 93 +14 +14 по сезону 1014.4 987.6 +12.8 0.8
09 22.08 С 1 17 км 10/10 420 м
[Sc]
+15.5 +12.3 81 +16 +16 по сезону 1013.5 986.9
12 22.08 СЗ 2 18 км 9/8 300 м
[Sc Ac trans]
+17.7 +11.2 66 +18 +20 прохладно 1012.6 986.3
15 22.08 С 1 19 км 8/3 600 м
[Sc Ac As]
+17.5 +11.4 67 +19 +19 по сезону 1012.0 985.7
18 22.08 штиль 0 17 км 8/3 600 м
[Sc Ac trans Ci fib]
+15.7 +11.6 77 +16 +16 по сезону 1011.4 984.9 +18.2
21 22.08 штиль 0 19 км 8/0
[Ac trans Ci fib]
+14.8 +11.9 83 +15 +15 по сезону 1010.4 983.8
00 23.08 СЗ 1 17 км 9/0
[Ac As]
+13.4 +11.8 90 +14 +14 по сезону 1008.7 982.0
03 23.08 СЗ 2 14 км 10/8 270 м
[Sc Ac trans]
+12.7 +11.7 94 +12 +12 по сезону 1007.8 981.1
06 23.08 СЗ 2 15 км 10/10 270 м
[Sc]
+13.0 +11.1 88 +12 +12 прохладно 1007.2 980.5 +12.6
09 23.08 СЗ 3 17 км {ливн. осадки} 10/8 270 м
[Sc Ac trans]
+15.5 +11.6 78 +15 +16 прохладно 1006.8 980.4
12 23.08 З 3 21 км {ливн. осадки} 10/10 360 м
[Sc]
+15.3 +9.6 69 +15 +15 холодно 1007.3 980.9
15 23.08 СЗ 2 13 км слабый ливневой дождь 10/8 720 м
[Sc As op]
+14.1 +10.7 80 +14 +14 холодно 1007.5 980.9
18 23.08 З 2 20 км в посл. час дождь {ливн. осадки} 10/8 720 м
[Sc As op]
+13.8 +10.7 82 +13 +13 прохладно 1007.0 980.4 +16.2 1
21 23.08 З 3 12 км слабый дождь 10/10 450 м
[Sc]
+12.7 +11.6 93 +11 +11 прохладно 1005.7 979.0
00 24.08 З 3
{11}
12 км слабый дождь 10/10 360 м
[Frnb Ns]
+12.3 +11.3 94 +11 +11 по сезону 1003.8 977.1
03 24.08 З 5-12
{12}
11 км слабый дождь 10/10 400 м
[Frnb Ns]
+11.3 +9.5 89 +9 +9 холодно 1001.6 974.9

 

Местоположение метеостанции Минск (город Минск, Беларусь): широта 53.93 долгота 27.63 высота над уровнем моря 231 м.

В архиве по умолчанию представлена погода в Минске за последнюю неделю. Архивные данные за месяц целиком и за предыдущие месяцы, начиная с января 2011 года, Вы можете получить, выбрав интересующий диапазон дат из раскрывающегося списка и нажав кнопку "Ввод!".

Внимание! Время в таблицах - всемирное. Для получения местного времени необходимо прибавить поправку, которая в Минске равна 3 ч.

Смотрите также архив погоды в соседних городах и на ближайших метеорологических станциях:

Погода в Марьиной Горке (Минская область, Беларусь) (63 км)
Погода в Борисове (Минская область, Беларусь) (68 км)
Погода в Воложине (Минская область, Беларусь) (75 км)
Погода в Вилейке (Минская область, Беларусь) (77 км)
Погода в Столбцах (Минская область, Беларусь) (78 км)
Погода в Березино (Минская область, Беларусь) (90 км)
Погода в Барановичах (Брестская область, Беларусь) (92 км)
Погода в Слуцке (Минская область, Беларусь) (100 км)
Погода в Докшицах (Витебская область, Беларусь) (106 км)
Погода в Кличеве (Могилевская область, Беларусь) (121 км)

Пояснения к столбцам:

Ветер - указаны скорость ветра в м/с - средняя за 10 мин, порывы в срок и между сроками (в фигурных скобках) и направление, откуда дует ветер: С - северный, СВ - северо-восточный, В - восточный, ЮВ - юго-восточный, Ю - южный, ЮЗ - юго-западный, З - западный, СЗ - северо-западный.
Видимость - горизонтальная дальность видимости в метрах или километрах. При видимости от 1 до 10 км при отсутствии осадков обычно наблюдается дымка, при ухудшении видимости до 1 км и менее - туман. В сухую погоду видимость может ухудшаться дымом, пылью или мглою.
Явления - указаны атмосферные явления, наблюдавшиеся в срок или в последний час перед сроком; фигурными скобками обозначены явления, наблюдавшиеся между сроками (за 1-3 часа до срока); квадратными скобками обозначены град или гололедные отложения с указанием их диаметра в мм.
Облачность - указаны через наклонную черту общая и нижняя облачность в баллах и высота нижней границы облаков в метрах; квадратными скобками обозначены формы облаков: Ci - перистые, Cs - перисто-слоистые, Cc - перисто-кучевые, Ac - высококучевые, As - высокослоистые, Sc - слоисто-кучевые, Ns - слоисто-дождевые, Cu - кучевые, Cb - кучево-дождевые. Подробнее классификацию облаков см. в Атласе облаков (PDF).
T - Температура воздуха - температура, измеренная на высоте 2 м над землей.
Td - Температура точки росы - температура, при понижении до которой содержащийся в воздухе водяной пар достигнет насыщения.
f - Относительная влажность воздуха - влажноcть воздуха, измеренная на высоте 2 м над землей.
Te - Эффективная температура - температура, которую ощущает одетый по сезону человек в тени. Характеристика душности погоды. При расчете учитывается влияние влажности воздуха и скорости ветра на теплоощущения человека.
Tes - Эффективная температура на солнце - температура, которую ощущает человек, с поправкой на солнечный нагрев. Характеристика знойности погоды. Зависит от высоты солнца над горизонтом, облачности и скорости ветра. Ночью, в пасмурную погоду, а также при ветре 12 м/с и более поправка равна нулю.
P - Атмосферное давление - приведенное к уровню моря атмосферное давление.
Po - Атмосферное давление - измеренное на уровне метеостанции атмосферное давление.
Tmin - Минимальная температура - минимум температуры воздуха на высоте 2 м над землей.
Tmax - Максимальная температура - максимум температуры воздуха на высоте 2 м над землей.
R - Количество осадков - Количество выпавших осадков за период времени, мм. При наведении курсора мыши на число - период времени, за который выпало указанное количество осадков.
R24 - Количество осадков - Количество выпавших осадков за 24 часа, мм.
S - Снежный покров - Высота снежного покрова, см. При наведении курсора мыши на число - состояние снежного покрова и степень покрытия местности в баллах.